Regional Weather Roundup
Issued by NWS Mobile, AL

Home | Current Version | Previous Version | Text Only | Print | Product List | Glossary On
Versions: 1 2 3 4 5 6 7 8 9 10 11 12 13 14 15 16 17 18 19 20 21 22 23 24 25 26 27
000
ASUS44 KMOB 311510
RWRMOB
REGIONAL WEATHER ROUNDUP
NATIONAL WEATHER SERVICE MOBILE AL
1000 AM CDT FRI OCT 31 2014

NOTE: "FAIR" INDICATES FEW OR NO CLOUDS BELOW 12,000 FEET WITH NO
      SIGNIFICANT WEATHER AND/OR OBSTRUCTIONS TO VISIBILITY.

  * THESE STATIONS ARE PART OF THE UNIVERSITY OF SOUTH ALABAMA
    MESONET AND ARE NOT UNDER NWS OR FAA QUALITY CONTROL.

ALZ061>064-311600-
COASTAL ALABAMA

CITY           SKY/WX    TMP DP  RH WIND       PRES   REMARKS
MOBILE REG APT MOSUNNY   63  43  48 W5        30.04S
BROOKLEY FIELD SUNNY     66  45  46 N3        30.04F
USA CAMPUS*      N/A     64  46  52 CALM      30.04F
DOG RIVER*     NOT AVBL


CITY           SKY/WX    TMP DP  RH WIND       PRES   REMARKS
MOUNT VERNON*  NOT AVBL
SARALAND*      NOT AVBL
BAY MINETTE*   NOT AVBL
LOXLEY*          N/A     63  46  55 CALM      30.03F
ROBERTSDALE*     N/A     64  43  45 CALM      30.02F
FAIRHOPE*        N/A     64  48  55 W3        30.02F
ELBERTA*         N/A     63  45  51 NW2       30.02S
FOLEY*           N/A     61  41  48 CALM      29.98F
GRAND BAY*       N/A     64  48  55 CALM      30.02S
DAUPHIN ISLND* NOT AVBL
BON SCOUR NWR* NOT AVBL
GULF SHORES    SUNNY     63  45  51 CALM      30.03S

$$

ALZ051>060-311600-
INTERIOR SOUTHWEST AND SOUTH CENTRAL ALABAMA

CITY           SKY/WX    TMP DP  RH WIND       PRES   REMARKS
GREENVILLE     SUNNY     62  42  47 CALM      29.99F
EVERGREEN      SUNNY     64  45  49 CALM      30.01S
CASTLEBERRY*   NOT AVBL
ATMORE*          N/A     63  45  51 CALM      30.03S
DIXIE*           N/A     61  46  59 CALM      29.99S
ANDALUSIA/OPP  SUNNY     65  42  43 NE3       30.00S
ANDALUSIA*       N/A     59  43  55 VRB3      30.00S
FLORALA APT    SUNNY     62  44  51 NE5       30.01F
FLORALA*         N/A     61  41  48 CALM      29.98F

$$

FLZ001>006-311600-
WESTERN FLORIDA PANHANDLE

CITY           SKY/WX    TMP DP  RH WIND       PRES   REMARKS
PENSACOLA      SUNNY     65  42  43 N5        30.01F
NAS PENSACOLA  MOSUNNY   65  48  54 CALM      30.01F
MILTON         MOSUNNY   63  42  46 VRB3      30.01F
WHTNG S FIELD  MOSUNNY   64  45  49 VRB3      30.01F


CITY           SKY/WX    TMP DP  RH WIND       PRES   REMARKS
WALNUT HILL*   NOT AVBL
JAY*             N/A     61  43  51 NW3       30.02S
DUKE FIELD     SUNNY     60  44  55 NW5       30.01S
CRESTVIEW      SUNNY     63  44  50 VRB3      30.02F
VALPARAISO     MOSUNNY   64  42  44 N6        30.00F
DESTIN         SUNNY     64  45  49 N7        30.01S

$$

MSZ076-079-311600-
INTERIOR SOUTHEAST MISSISSIPPI

CITY           SKY/WX    TMP DP  RH WIND       PRES   REMARKS
LEAKESVILLE*     N/A     59  43  55 SW3       30.03F
AGRICOLA*      NOT AVBL

$$

MARINE OBSERVATIONS

STATION/POSITION TIME  TEMP    WIND        PRES    WAVE
                       AIR SEA DIR/SP/G            HT/PER
                 (UTC) (F)     (DEG/KT/KT) (MB)    (FT/S)
PASCAGOULA       1500   63     340/  3/  4 1016.9F
PETIT BOIS ISLND 1500   65     330/  5/  6 1017.4F
GRAND BAY        1300   51     350/  5     1017.0S
KATRINA CUT      1400   62     360/  6     1017.6S
CEDAR POINT      1400   59     350/  5     1016.9F
E DAUPHIN ISLAND 1354   62     340/  6/  6 1017.3R
MIDDLE BAY LIGHT 1400   70     330/  3       N/A
USCG MOBILE BAY  1500   64 74   CALM  /  2 1015.7S
STATE DOCKS      1500   64 74              1016.6F
MEAHER PARK      1400   59     350/  2     1017.3S
WEEKS BAY        1300   46                   N/A
12 S ORANGE BCH  1500   66 77  340/  8/ 10 1016.4R   1/ 3
PENSACOLA BAY    1500   67 74   80/  2/  3 1016.4F
64 S DAUPHIN ISL 1428   69 78  350/ 14/ 17 1017.8R   3/ 4
67 S FORT MORGAN 1400   70                 1016.9

$$

SELECTED LOCATIONS ACROSS THE REGION

CITY           SKY/WX    TMP DP  RH WIND       PRES   REMARKS
NEW ORLEANS    MOSUNNY   66  51  58 NW9       30.07S
GULFPORT       SUNNY     64  47  53 W5        30.04S
PASCAGOULA AP  SUNNY     64  46  52 W3        30.04S
PASCAGOULA*      N/A     64  41  42 N3        30.04S
HATTIESBURG    SUNNY     64  48  56 NW13      30.04S
LAUREL         SUNNY     61  46  59 W6        30.04S
MERIDIAN       MOSUNNY   59  47  64 W8        30.02S
JACKSON        SUNNY     62  48  60 NW8       30.07R
MONTGOMERY     SUNNY     61  43  51 CALM      30.00S
TROY           SUNNY     61  42  49 N6        30.00S
KINSTON*       NOT AVBL
GENEVA*          N/A     59  46  63 NW5       30.02F
ASHFORD*         N/A     59  43  55 VRB3      30.00S
DOTHAN         SUNNY     60  43  53 N6        30.02S
PANAMA CITY    SUNNY     63  44  50 NW6       29.99F

$$




USA.gov is the U.S. government's official web portal to all federal, state and local government web resources and services.